[[{"header":{"parameterUnit":"m.s-1","parameterCategory":1,"la1":30.2991,"la2":30.254,"lo1":-89.0895,"lo2":-89.0444,"dy":0.0017,"dx":0.0017,"nx":28,"ny":28,"refTime":"2024-09-28T03:00:00:Z","depth":0,"parameterNumber":2,"parameterNumberName":"U-component_of_WINDS"},"data":[0,0,0,0,0,0,0,0,0,0,0,0,0,0,0,0,0,0,0,0,0,0,0,0,0,0,0,0,0,0,0,0,0,0,0,0,0,0,0,0,0,0,0,0,0,0,0,0,0,0,0,0,0,0,0,0,0,0,6.2669,6.2669,0,6.274,6.2741,6.2742,6.2695,6.2693,6.2691,6.2689,6.2763,6.2767,6.2771,0,0,0,0,0,0,0,0,0,0,0,0,0,6.2492,6.2496,6.2669,6.267,6.267,6.274,6.2741,6.2742,6.2695,6.2693,6.269,6.2688,6.2761,6.2766,6.2771,0,0,0,0,0,0,0,0,0,0,0,0,0,6.2567,6.2497,6.2668,6.2655,6.2655,6.274,6.2741,6.2742,6.2696,6.2693,6.2689,6.2686,6.276,6.2766,6.2772,6.2874,0,0,6.279,6.2792,0,0,0,0,0,0,0,0,6.2563,6.2573,6.2656,6.2656,6.2656,6.2705,6.2706,6.2786,6.2697,6.268,6.2688,6.2685,6.2746,6.2753,6.2774,6.2877,6.288,6.279,6.2794,6.2797,6.2798,0,0,0,0,0,0,0,6.2558,6.257,6.2697,6.2658,6.2658,6.2646,6.2653,6.2721,6.2731,6.2682,6.2678,6.2687,6.2746,6.2768,6.2775,6.2881,6.279,6.2796,6.2799,6.2802,6.3072,6.3075,0,0,0,0,0,0,6.2553,6.2566,6.2695,6.2699,6.26,6.2652,6.266,6.2693,6.273,6.2732,6.269,6.2685,6.2759,6.2768,6.2778,6.2899,6.2797,6.2802,6.2806,6.3068,6.3073,6.3077,0,0,0,0,0,0,6.255,6.2565,6.2692,6.2632,6.2647,6.2659,6.2696,6.2696,6.2718,6.2736,6.2738,6.2711,6.2757,6.2769,6.285,6.2901,6.2805,6.281,6.3064,6.307,6.3075,6.3143,0,0,0,0,0,0,6.2545,6.2564,6.2603,6.2633,6.265,6.2763,6.2699,6.27,6.2729,6.2723,6.2757,6.2759,6.2756,6.2841,6.2856,6.2907,6.2815,6.306,6.3067,6.3073,6.3136,6.315,6.3162,0,0,0,0,0,6.2539,6.2619,6.2605,6.2621,6.2699,6.2766,6.2776,6.277,6.2733,6.2772,6.2784,6.2758,6.2893,6.285,6.2866,6.292,6.3056,6.3065,6.3073,6.313,6.3147,6.3161,0,0,0,0,0,0,6.2595,6.2623,6.2607,6.27,6.2731,6.2758,6.2806,6.2788,6.283,6.2823,6.2814,6.2822,6.2906,6.2922,6.2873,6.3021,6.2969,6.2981,6.3007,6.3024,6.3036,6.303,6.282,0,0,0,0,0,6.2618,6.267,6.2692,6.2771,6.2788,6.2795,6.2824,6.2817,6.2848,6.2861,6.2879,6.2911,6.296,6.2993,6.304,6.3139,6.3145,6.3184,6.3197,6.3207,6.3217,6.327,6.3287,6.3103,6.3103,6.3103,0,0,6.2666,6.2688,6.2721,6.2783,6.2806,6.286,6.2806,6.2865,6.2905,6.287,6.2947,6.2962,6.2997,6.3087,6.3128,6.3102,6.3269,6.3217,6.3226,6.323,6.328,6.3297,6.3313,6.3109,6.3108,6.3107,0,0,6.2781,6.2803,6.2872,6.2896,6.2932,6.2936,6.2953,6.2983,6.2991,6.3068,6.3043,6.3091,6.3177,6.3203,6.3227,6.3354,6.3331,6.3369,6.3436,6.3488,6.3502,6.3515,6.3559,6.3575,6.3379,6.338,6.338,0,6.2836,6.2916,6.2909,6.2971,6.2999,6.297,6.3039,6.3063,6.3113,6.3133,6.3104,6.3211,6.3233,6.3329,6.3359,6.3381,6.3399,6.3364,6.35,6.3513,6.3525,6.3567,6.3584,6.3384,6.3383,6.3383,6.3382,0,6.2982,6.3038,6.3089,6.3137,6.3172,6.3237,6.324,6.3275,6.3266,6.3274,6.3353,6.3378,6.3429,6.3452,6.3444,6.3547,6.353,6.3501,6.3449,6.3547,6.3586,6.3602,6.339,6.3388,6.3387,6.3386,0,0,6.3132,6.3177,6.3195,6.3217,6.3255,6.3298,6.3363,6.3413,6.3443,6.3479,6.3532,6.3606,6.3579,6.3607,6.3602,6.3648,6.3745,6.3613,6.3614,6.3636,6.386,6.388,6.3899,6.3732,6.3735,6.3737,6.3857,0,6.3249,6.336,6.3356,6.346,6.3512,6.3486,6.3542,6.3572,6.3581,6.3626,6.3637,6.3689,6.3651,6.3667,6.3712,6.3724,6.379,6.3716,6.3781,6.3783,6.3771,6.392,6.3941,6.4053,6.3872,6.3875,6.3877,0,6.3399,6.3439,6.3548,6.3579,6.36,6.365,6.3696,6.374,6.3773,6.3777,6.3809,6.3796,6.3862,6.3809,6.3899,6.3848,6.3875,6.3886,6.389,6.3894,6.3835,6.3927,6.4088,6.4104,6.3901,6.3899,6.3897,0,6.3496,6.3578,6.3654,6.3673,6.3711,6.3747,6.3764,6.3794,6.3825,6.3865,6.3885,6.3933,6.3959,6.3996,6.3997,6.3959,6.4088,6.4035,6.4092,6.4092,6.4119,6.4117,6.4285,6.4139,6.4139,6.4139,6.4138,0,6.3625,6.3693,6.3698,6.3744,6.3819,6.3815,6.389,6.3904,6.3931,6.398,6.3961,6.4008,6.4006,6.4054,6.4055,6.4129,6.4142,6.4146,6.4145,6.4147,6.4146,6.4163,6.4154,6.4143,6.4142,6.4141,6.4141,0,6.3746,6.3752,6.3833,6.3862,6.3871,6.3925,6.395,6.3995,6.4003,6.4065,6.408,6.4093,6.4147,6.4152,6.4216,6.4217,6.4306,6.4298,6.4295,6.4293,6.4349,6.4343,6.4532,6.4556,6.4396,6.4398,6.4399,0,6.3827,6.3878,6.3913,6.3945,6.3964,6.4015,6.4046,6.4044,6.4077,6.412,6.4159,6.4212,6.4254,6.4343,6.4358,6.4407,6.4399,6.4462,6.4406,6.4406,6.4398,6.4394,6.4399,6.4472,6.4474,6.4476,6.4477,0,6.397,6.3971,6.4016,6.4063,6.41,6.4137,6.4172,6.4199,6.4201,6.424,6.4295,6.4328,6.4393,6.4446,6.4494,6.4512,6.4495,6.4495,6.451,6.4511,6.4506,6.4508,6.4322,6.449,6.4488,6.4487,6.4487,6.4486,6.4072,6.4116,6.4148,6.4199,6.4225,6.4258,6.4301,6.4315,6.4361,6.4414,6.441,6.4472,6.4504,6.4567,6.4589,6.4638,6.4616,6.4639,6.4645,6.465,6.4655,6.4501,6.4647,6.4646,6.4646,6.4646,6.4645,0,6.4213,6.4232,6.428,6.4328,6.4369,6.435,6.4387,6.4422,6.4476,6.4508,6.455,6.4614,6.4666,6.4686,6.4736,6.4771,6.4764,6.4784,6.478,6.4785,6.4672,6.4652,6.4788,6.4788,6.4788,6.4788,6.4788,6.4788,6.4291,6.4364,6.4369,6.4456,6.4475,6.4534,6.4557,6.4588,6.4613,6.4685,6.4728,6.474,6.4768,6.482,6.4866,6.4871,6.4889,6.4912,6.4913,6.4807,6.4793,6.4779,6.4761,6.4917,6.4917,6.5022,6.5023,6.5024]},{"header":{"parameterUnit":"m.s-1","parameterCategory":1,"la1":30.2991,"la2":30.254,"lo1":-89.0895,"lo2":-89.0444,"dy":0.0017,"dx":0.0017,"nx":28,"ny":28,"refTime":"2024-09-28T03:00:00:Z","depth":0,"parameterNumber":3,"parameterNumberName":"V-component_of_WINDS"},"data":[0,0,0,0,0,0,0,0,0,0,0,0,0,0,0,0,0,0,0,0,0,0,0,0,0,0,0,0,0,0,0,0,0,0,0,0,0,0,0,0,0,0,0,0,0,0,0,0,0,0,0,0,0,0,0,0,0,0,3.2426,3.2426,0,3.2492,3.2493,3.2494,3.2509,3.2509,3.2508,3.2508,3.2572,3.2574,3.2576,0,0,0,0,0,0,0,0,0,0,0,0,0,3.2307,3.2309,3.2425,3.2426,3.2427,3.2492,3.2493,3.2494,3.2509,3.2509,3.2508,3.2508,3.2571,3.2574,3.2576,0,0,0,0,0,0,0,0,0,0,0,0,0,3.2364,3.231,3.2425,3.2443,3.2445,3.2492,3.2493,3.2494,3.2509,3.2509,3.2508,3.2507,3.257,3.2574,3.2577,3.261,0,0,3.2586,3.2588,0,0,0,0,0,0,0,0,3.2361,3.2369,3.2439,3.2442,3.2444,3.2492,3.2475,3.2533,3.251,3.2485,3.2508,3.2507,3.2546,3.2551,3.2565,3.2613,3.2615,3.2587,3.2589,3.259,3.2591,0,0,0,0,0,0,0,3.2357,3.2366,3.2452,3.244,3.2443,3.2446,3.2453,3.2486,3.2518,3.2487,3.2488,3.2496,3.2547,3.2561,3.2566,3.2616,3.2587,3.2589,3.2591,3.2593,3.2692,3.2693,0,0,0,0,0,0,3.2351,3.2362,3.245,3.2454,3.24,3.2448,3.2457,3.2477,3.2518,3.2523,3.2497,3.2497,3.2556,3.2562,3.2568,3.2608,3.259,3.2593,3.2595,3.2692,3.2693,3.2693,0,0,0,0,0,0,3.2348,3.2358,3.2447,3.2408,3.242,3.2451,3.2474,3.2479,3.2494,3.2525,3.253,3.2506,3.2556,3.2564,3.2599,3.2611,3.2594,3.2597,3.2691,3.2692,3.2693,3.2689,0,0,0,0,0,0,3.2345,3.2357,3.2371,3.2409,3.2422,3.2478,3.2475,3.248,3.2499,3.25,3.2535,3.254,3.2556,3.2594,3.2602,3.2615,3.26,3.269,3.2691,3.2693,3.2688,3.269,3.2692,0,0,0,0,0,3.234,3.2367,3.2372,3.2382,3.244,3.2479,3.2486,3.2505,3.25,3.2514,3.2534,3.2539,3.2608,3.2598,3.2607,3.2621,3.2689,3.2691,3.2692,3.2688,3.269,3.2691,0,0,0,0,0,0,3.2329,3.2372,3.2378,3.2418,3.2445,3.2481,3.2499,3.2506,3.2534,3.2533,3.2554,3.2561,3.2595,3.2611,3.2599,3.2654,3.2648,3.2652,3.2642,3.2644,3.2645,3.264,3.2602,0,0,0,0,0,3.2332,3.236,3.2396,3.2428,3.2441,3.2467,3.2485,3.2497,3.2525,3.2535,3.2558,3.2583,3.2611,3.2628,3.2655,3.2691,3.2698,3.2705,3.2706,3.2707,3.271,3.2728,3.2731,3.2699,3.2699,3.2699,0,0,3.2336,3.2364,3.238,3.2426,3.2448,3.2476,3.2477,3.2506,3.2527,3.254,3.2574,3.2591,3.2621,3.2656,3.2673,3.2671,3.272,3.2709,3.271,3.2712,3.273,3.2733,3.2736,3.27,3.27,3.27,0,0,3.2359,3.2384,3.2412,3.2434,3.2468,3.2485,3.2492,3.2527,3.2539,3.2574,3.2584,3.2608,3.2655,3.2675,3.2692,3.2721,3.2726,3.2729,3.2737,3.2754,3.2757,3.2759,3.2768,3.2772,3.2731,3.2731,3.2731,0,3.2361,3.2405,3.2425,3.2455,3.2474,3.2488,3.2515,3.2535,3.2575,3.2587,3.2585,3.2643,3.2664,3.2704,3.2711,3.2724,3.2731,3.2725,3.2755,3.2758,3.276,3.2769,3.2773,3.2731,3.2731,3.2731,3.2731,0,3.2404,3.2434,3.2453,3.2492,3.2513,3.2541,3.2565,3.2583,3.2593,3.261,3.2645,3.267,3.2702,3.2712,3.2722,3.2752,3.275,3.2751,3.2746,3.2763,3.2772,3.2775,3.2731,3.2731,3.2731,3.2731,0,0,3.2422,3.2472,3.2479,3.2496,3.2533,3.2556,3.2584,3.2616,3.2631,3.2658,3.2681,3.272,3.2721,3.2739,3.2751,3.2767,3.2786,3.2766,3.2767,3.2768,3.282,3.2818,3.2822,3.279,3.2791,3.2792,3.2817,0,3.2449,3.2501,3.252,3.2562,3.2589,3.2602,3.2626,3.2651,3.2667,3.2691,3.2708,3.2735,3.2735,3.2746,3.2762,3.2781,3.2797,3.2779,3.281,3.2811,3.2802,3.2827,3.2826,3.2848,3.2821,3.2821,3.2822,0,3.2487,3.2515,3.256,3.2594,3.2606,3.2627,3.2657,3.2681,3.2708,3.2718,3.2739,3.2749,3.2777,3.2771,3.2808,3.2796,3.2809,3.282,3.2821,3.2825,3.2817,3.283,3.2856,3.2859,3.2827,3.2827,3.2827,0,3.2494,3.2543,3.2577,3.2591,3.2631,3.2645,3.2662,3.2689,3.2707,3.2733,3.2744,3.2772,3.2787,3.2808,3.2825,3.2819,3.2861,3.2856,3.2869,3.2868,3.2877,3.2876,3.2905,3.2887,3.2887,3.2887,3.2887,0,3.2522,3.2549,3.258,3.26,3.263,3.2651,3.2679,3.2696,3.272,3.2742,3.2755,3.2775,3.2797,3.282,3.2834,3.2862,3.2869,3.2877,3.288,3.2875,3.2874,3.2884,3.2883,3.2888,3.2887,3.2887,3.2887,0,3.2535,3.2557,3.2594,3.2629,3.2638,3.2658,3.2687,3.2706,3.2723,3.2751,3.2758,3.2784,3.2811,3.2831,3.2866,3.2874,3.2904,3.2908,3.2896,3.2897,3.2908,3.2907,3.2944,3.295,3.2928,3.2929,3.2929,0,3.2551,3.2572,3.2609,3.2625,3.2642,3.2669,3.2687,3.2708,3.2726,3.2758,3.2772,3.2801,3.2825,3.2867,3.2888,3.2914,3.2918,3.2929,3.2922,3.2916,3.2917,3.2915,3.2917,3.293,3.293,3.293,3.293,0,3.2576,3.2586,3.2612,3.2643,3.2664,3.2689,3.2713,3.2725,3.275,3.2769,3.2798,3.2816,3.2852,3.2879,3.2908,3.2923,3.293,3.2933,3.2937,3.2932,3.2924,3.2927,3.2898,3.2932,3.2931,3.2931,3.2931,3.2931,3.259,3.2609,3.2638,3.2666,3.2687,3.2709,3.2729,3.2748,3.2773,3.2805,3.2815,3.2844,3.2869,3.2908,3.2923,3.2945,3.2945,3.2951,3.2952,3.2953,3.2953,3.2921,3.2951,3.2951,3.2951,3.2951,3.2951,0,3.2615,3.2634,3.266,3.2695,3.2717,3.2723,3.275,3.2767,3.2794,3.2817,3.284,3.2872,3.2899,3.2921,3.2948,3.2961,3.2965,3.2968,3.2966,3.297,3.2952,3.2946,3.2964,3.2964,3.2964,3.2964,3.2964,3.2964,3.263,3.2662,3.2675,3.2717,3.2735,3.2765,3.278,3.28,3.2819,3.2855,3.2877,3.2892,3.2914,3.2943,3.2967,3.2972,3.2981,3.2983,3.2989,3.2973,3.2971,3.2969,3.2963,3.2985,3.2985,3.3004,3.3005,3.3005]}]]